Date of measurement,Time of measurement,TP (mg/L)
Date,Time,Total phosphorus
Units: Year month day,Units: Hour minute,Units: milligrams per litre
2012-03-22,10:00,0.07509
2012-03-22,11:00,0.10134
2012-03-22,11:30,0.10195
2012-03-22,12:00,0.11233
2012-03-22,12:30,0.11233
2012-03-22,13:00,0.12149
2012-03-22,13:30,0.13034
2012-03-22,14:00,0.13065
2012-03-22,14:30,0.12118
2012-03-22,15:00,0.1102
2012-03-22,15:30,0.10104
2012-03-22,16:00,0.10104
2012-03-22,16:30,0.10073
2012-03-22,17:00,0.10043
2012-03-22,17:30,0.10073
2012-03-22,18:00,0.09066
2012-03-22,18:30,0.09005
2012-03-22,19:00,0.09127
2012-03-22,19:30,0.10165
2012-03-22,20:00,0.10073
2012-03-22,20:30,0.10165
2012-03-22,21:00,0.10165
2012-03-22,21:30,0.10195
2012-03-22,22:00,0.10195
2012-03-22,22:30,0.10195
2012-03-22,23:00,0.10195
2012-03-22,23:30,0.10195
2012-03-23,00:00,0.11264
2012-03-23,00:30,0.11294
2012-03-23,01:00,0.11172
2012-03-23,01:30,0.10226
2012-03-23,02:00,0.11233
2012-03-23,02:30,0.10256
2012-03-23,03:00,0.11294
2012-03-23,03:30,0.11294
2012-03-23,04:00,0.11264
2012-03-23,04:30,0.11294
2012-03-23,05:00,0.10287
2012-03-23,05:30,0.10287
2012-03-23,06:00,0.09982
2012-03-23,06:30,0.10226
2012-03-23,07:00,0.10195
2012-03-23,07:30,0.09402
2012-03-23,08:00,0.10165
2012-03-23,08:30,0.10195
2012-03-23,09:00,0.10226
2012-03-23,09:30,0.10134
2012-03-23,10:00,0.09921
2012-03-23,10:30,0.10165
2012-03-23,11:00,0.10165
2012-03-23,11:30,0.10165
2012-03-23,12:00,0.10012
2012-03-23,12:30,0.11172
2012-03-23,13:00,0.11172
2012-03-23,13:30,0.11172
2012-03-23,14:00,0.11111
2012-03-23,14:30,0.10958
2012-03-23,15:00,0.10989
2012-03-23,15:30,0.10012
2012-03-23,16:00,0.09341
2012-03-23,16:30,0.10104
2012-03-23,17:00,0.10104
2012-03-23,17:30,0.10104
2012-03-23,18:00,0.10134
2012-03-23,18:30,0.10104
2012-03-23,19:00,0.10073
2012-03-23,19:30,0.10134
2012-03-23,20:00,0.10165
2012-03-23,20:30,0.10104
2012-03-23,21:00,0.09249
2012-03-23,21:30,0.10165
2012-03-23,22:00,0.10195
2012-03-23,22:30,0.10195
2012-03-23,23:00,0.11264
2012-03-23,23:30,0.11172
2012-03-24,00:00,0.10256
2012-03-24,00:30,0.11264
2012-03-24,01:00,0.11294
2012-03-24,01:30,0.11294
2012-03-24,02:00,0.11294
2012-03-24,02:30,0.11264
2012-03-24,03:00,0.10165
2012-03-24,03:30,0.10226
2012-03-24,04:00,0.10226
2012-03-24,04:30,0.10287
2012-03-24,05:00,0.10287
2012-03-24,05:30,0.11294
2012-03-24,06:00,0.10287
2012-03-24,06:30,0.10287
2012-03-24,07:00,0.10287
2012-03-24,07:30,0.10287
2012-03-24,08:00,0.11233
2012-03-24,08:30,0.10226
2012-03-24,09:00,0.10287
2012-03-24,09:30,0.10165
2012-03-24,10:00,0.10165
2012-03-24,10:30,0.10165
2012-03-24,11:00,0.10165
2012-03-24,11:30,0.09982
2012-03-24,12:00,0.10104
2012-03-24,12:30,0.10134
2012-03-24,13:00,0.10012
2012-03-24,13:30,0.11081
2012-03-24,14:00,0.10958
2012-03-24,14:30,0.1102
2012-03-24,15:00,0.10104
2012-03-24,15:30,0.10104
2012-03-24,16:00,0.10104
2012-03-24,16:30,0.10073
2012-03-24,17:00,0.10043
2012-03-24,17:30,0.09951
2012-03-24,18:00,0.10104
2012-03-24,18:30,0.10073
2012-03-24,19:00,0.10104
2012-03-24,19:30,0.12149
2012-03-24,20:00,0.12088
2012-03-24,20:30,0.11172
2012-03-24,21:00,0.10165
2012-03-24,21:30,0.10073
2012-03-24,22:00,0.10195
2012-03-24,22:30,0.10195
2012-03-24,23:00,0.10195
2012-03-24,23:30,0.10256
2012-03-25,00:00,0.10256
2012-03-25,00:30,0.10287
2012-03-25,01:00,0.10287
2012-03-25,01:30,0.10287
2012-03-25,02:00,0.10195
2012-03-25,02:30,0.10226
2012-03-25,03:00,0.10287
2012-03-25,03:30,0.10287
2012-03-25,04:00,0.10287
2012-03-25,04:30,0.10287
2012-03-25,05:00,0.10317
2012-03-25,05:30,0.10043
2012-03-25,06:00,0.10195
2012-03-25,06:30,0.10226
2012-03-25,07:00,0.15018
2012-03-25,07:30,0.14164
2012-03-25,08:00,0.10226
2012-03-25,08:30,0.10226
2012-03-25,09:00,0.10043
2012-03-25,09:30,0.10287
2012-03-25,10:00,0.10165
2012-03-25,10:30,0.10073
2012-03-25,11:00,0.10073
2012-03-25,11:30,0.10104
2012-03-25,12:00,0.10104
2012-03-25,12:30,0.10134
2012-03-25,13:00,0.10073
2012-03-25,13:30,0.10073
2012-03-25,14:00,0.10073
2012-03-25,14:30,0.10073
2012-03-25,15:00,0.10073
2012-03-25,15:30,0.10043
2012-03-25,16:00,0.10104
2012-03-25,16:30,0.09096
2012-03-25,17:00,0.09066
2012-03-25,17:30,0.10104
2012-03-25,18:00,0.08944
2012-03-25,18:30,0.10104
2012-03-25,19:00,0.11111
2012-03-25,19:30,0.11081
2012-03-25,20:00,0.11172
2012-03-25,20:30,0.10134
2012-03-25,21:00,0.10165
2012-03-25,21:30,0.09219
2012-03-25,22:00,0.09188
2012-03-25,22:30,0.09158
2012-03-25,23:00,0.10134
2012-03-25,23:30,0.10256
2012-03-26,00:00,0.10287
2012-03-26,00:30,0.10256
2012-03-26,01:00,0.10195
2012-03-26,01:30,0.10226
2012-03-26,02:00,0.10256
2012-03-26,02:30,0.10287
2012-03-26,03:00,0.10287
2012-03-26,03:30,0.10287
2012-03-26,04:00,0.10165
2012-03-26,04:30,0.10226
2012-03-26,05:00,0.10226
2012-03-26,05:30,0.10256
2012-03-26,06:00,0.10287
2012-03-26,06:30,0.10256
2012-03-26,07:00,0.10287
2012-03-26,07:30,0.10287
2012-03-26,08:00,0.10287
2012-03-26,08:30,0.10287
2012-03-26,09:00,0.10256
2012-03-26,09:30,0.10226
2012-03-26,10:00,0.10073
2012-03-26,10:30,0.10195
2012-03-26,11:00,0.10134
2012-03-26,11:30,0.11203
2012-03-26,12:00,0.11203
2012-03-26,12:30,0.1102
2012-03-26,13:00,0.11172
2012-03-26,13:30,0.10073
2012-03-26,14:00,0.10073
2012-03-26,14:30,0.10104
2012-03-26,15:00,0.10012
2012-03-26,15:30,0.10043
2012-03-26,16:00,0.10256
2012-03-26,16:30,0.10989
2012-03-26,17:00,0.11935
2012-03-26,17:30,0.12027
2012-03-26,18:00,0.1105
2012-03-26,18:30,0.10134
2012-03-26,19:00,0.10104
2012-03-26,19:30,0.10134
2012-03-26,20:00,0.10165
2012-03-26,20:30,0.10073
2012-03-26,21:00,0.10165
2012-03-26,21:30,0.10195
2012-03-26,22:00,0.10165
2012-03-26,22:30,0.10165
2012-03-26,23:00,0.10165
2012-03-26,23:30,0.10226
2012-03-27,00:00,0.10287
2012-03-27,00:30,0.10287
2012-03-27,01:00,0.10195
2012-03-27,01:30,0.10226
2012-03-27,02:00,0.10287
2012-03-27,02:30,0.10287
2012-03-27,03:00,0.0986
2012-03-27,03:30,0.10226
2012-03-27,04:00,0.10195
2012-03-27,04:30,0.10226
2012-03-27,05:00,0.0928
2012-03-27,05:30,0.10256
2012-03-27,06:00,0.10287
2012-03-27,06:30,0.10287
2012-03-27,07:00,0.10287
2012-03-27,07:30,0.10287
2012-03-27,08:00,0.10256
2012-03-27,08:30,0.10287
2012-03-27,09:00,0.10226
2012-03-27,09:30,0.10134
2012-03-27,10:00,0.0989
2012-03-27,10:30,0.10165
2012-03-27,11:00,0.11203
2012-03-27,11:30,0.10165
2012-03-27,12:00,0.10043
2012-03-27,12:30,0.10104
2012-03-27,13:00,0.10104
2012-03-27,13:30,0.10043
2012-03-27,14:00,0.10104
2012-03-27,14:30,0.10073
2012-03-27,15:00,0.09005
2012-03-27,15:30,0.09005
2012-03-27,16:00,0.09127
2012-03-27,16:30,0.08974
2012-03-27,17:00,0.09096
2012-03-27,17:30,0.09096
2012-03-27,18:00,0.09066
2012-03-27,18:30,0.09066
2012-03-27,19:00,0.09066
2012-03-27,19:30,0.09921
2012-03-27,20:00,0.09188
2012-03-27,20:30,0.09188
2012-03-27,21:00,0.09158
2012-03-27,21:30,0.09219
2012-03-27,22:00,0.09249
2012-03-27,22:30,0.09249
2012-03-27,23:00,0.0928
2012-03-27,23:30,0.08669
2012-03-28,00:00,0.10226
2012-03-28,00:30,0.10256
2012-03-28,01:00,0.10287
2012-03-28,01:30,0.09341
2012-03-28,02:00,0.0931
2012-03-28,02:30,0.11233
2012-03-28,03:00,0.11294
2012-03-28,03:30,0.12302
2012-03-28,04:00,0.11294
2012-03-28,04:30,0.11264
2012-03-28,05:00,0.11264
2012-03-28,05:30,0.10226
2012-03-28,06:00,0.10256
2012-03-28,06:30,0.10256
2012-03-28,07:00,0.09341
2012-03-28,07:30,0.10287
2012-03-28,08:00,0.10256
2012-03-28,08:30,0.10226
2012-03-28,09:00,0.10165
2012-03-28,09:30,0.10256
2012-03-28,10:00,0.10165
2012-03-28,10:30,0.10165
2012-03-28,11:00,0.09219
2012-03-28,11:30,0.10165
2012-03-28,12:00,0.10104
2012-03-28,12:30,0.09066
2012-03-28,13:00,0.10043
2012-03-28,13:30,0.10104
2012-03-28,14:00,0.10073
2012-03-28,14:30,0.09035
2012-03-28,15:00,0.09066
2012-03-28,15:30,0.09066
2012-03-28,16:00,0.10104
2012-03-28,16:30,0.09066
2012-03-28,17:00,0.09066
2012-03-28,17:30,0.09035
2012-03-28,18:00,0.09066
2012-03-28,18:30,0.08974
2012-03-28,19:00,0.09158
2012-03-28,19:30,0.09249
2012-03-28,20:00,0.09188
2012-03-28,20:30,0.09188
2012-03-28,21:00,0.09219
2012-03-28,21:30,0.09219
2012-03-28,22:00,0.09219
2012-03-28,22:30,0.09219
2012-03-28,23:00,0.09249
2012-03-28,23:30,0.0931
2012-03-29,00:00,0.0931
2012-03-29,00:30,0.09341
2012-03-29,01:00,0.08761
2012-03-29,01:30,0.10226
2012-03-29,02:00,0.10256
2012-03-29,02:30,0.10256
2012-03-29,03:00,0.10287
2012-03-29,03:30,0.09341
2012-03-29,04:00,0.09341
2012-03-29,04:30,0.09341
2012-03-29,05:00,0.09188
2012-03-29,05:30,0.0928
2012-03-29,06:00,0.0931
2012-03-29,06:30,0.10256
2012-03-29,07:00,0.0931
2012-03-29,07:30,0.10287
2012-03-29,08:00,0.10256
2012-03-29,08:30,0.10165
2012-03-29,09:00,0.10165
2012-03-29,09:30,0.10195
2012-03-29,10:00,0.09219
2012-03-29,10:30,0.10073
2012-03-29,11:00,0.11111
2012-03-29,11:30,0.12118
2012-03-29,12:00,0.12149
2012-03-29,12:30,0.11172
2012-03-29,13:00,0.10012
2012-03-29,13:30,0.1105
2012-03-29,14:00,0.10073
2012-03-29,14:30,0.09951
2012-03-29,15:00,0.10073
2012-03-29,15:30,0.09005
2012-03-29,16:00,0.09005
2012-03-29,16:30,0.09005
2012-03-29,17:00,0.09096
2012-03-29,17:30,0.09066
2012-03-29,18:00,0.09066
2012-03-29,18:30,0.08089
2012-03-29,19:00,0.08089
2012-03-29,19:30,0.08089
2012-03-29,20:00,0.08059
2012-03-29,20:30,0.08242
2012-03-29,21:00,0.09188
2012-03-29,21:30,0.10134
2012-03-29,22:00,0.0928
2012-03-29,22:30,0.08181
2012-03-29,23:00,0.08974
2012-03-29,23:30,0.09127
2012-03-30,00:00,0.09249
2012-03-30,00:30,0.09341
2012-03-30,01:00,0.09341
2012-03-30,01:30,0.09341
2012-03-30,02:00,0.09249
2012-03-30,02:30,0.10256
2012-03-30,03:00,0.09341
2012-03-30,03:30,0.10287
2012-03-30,04:00,0.09341
2012-03-30,04:30,0.10287
2012-03-30,05:00,0.10287
2012-03-30,05:30,0.10562
2012-03-30,06:00,0.0928
2012-03-30,06:30,0.10226
2012-03-30,07:00,0.09249
2012-03-30,07:30,0.10256
2012-03-30,08:00,0.10195
2012-03-30,08:30,0.10195
2012-03-30,09:00,0.10195
2012-03-30,09:30,0.09219
2012-03-30,10:00,0.09249
2012-03-30,10:30,0.09219
2012-03-30,11:00,0.09188
2012-03-30,11:30,0.09127
2012-03-30,12:00,0.10104
2012-03-30,12:30,0.10134
2012-03-30,13:00,0.10104
2012-03-30,13:30,0.10104
2012-03-30,14:00,0.10043
2012-03-30,14:30,0.10043
2012-03-30,15:00,0.10073
2012-03-30,15:30,0.09066
2012-03-30,16:00,0.09066
2012-03-30,16:30,0.0931
2012-03-30,17:00,0.08944
2012-03-30,17:30,0.08974
2012-03-30,18:00,0.09005
2012-03-30,18:30,0.09066
2012-03-30,19:00,0.09096
2012-03-30,19:30,0.09096
2012-03-30,20:00,0.09127
2012-03-30,20:30,0.09066
2012-03-30,21:00,0.10195
2012-03-30,21:30,0.11203
2012-03-30,22:00,0.11203
2012-03-30,22:30,0.11172
2012-03-30,23:00,0.09219
2012-03-30,23:30,0.09249
2012-03-31,00:00,0.09219
2012-03-31,00:30,0.0928
2012-03-31,01:00,0.0931
2012-03-31,01:30,0.09341
2012-03-31,02:00,0.09341
2012-03-31,02:30,0.09341
2012-03-31,03:00,0.09341
2012-03-31,03:30,0.0931
2012-03-31,04:00,0.09341
2012-03-31,04:30,0.0931
2012-03-31,05:00,0.09341
2012-03-31,05:30,0.09341
2012-03-31,06:00,0.10256
2012-03-31,06:30,0.10287
2012-03-31,07:00,0.09219
2012-03-31,07:30,0.09249
2012-03-31,08:00,0.11264
2012-03-31,08:30,0.10195
2012-03-31,09:00,0.09219
2012-03-31,09:30,0.09219
2012-03-31,10:00,0.09219
2012-03-31,10:30,0.09219
2012-03-31,11:00,0.09219
2012-03-31,11:30,0.09219
2012-03-31,12:00,0.09219
2012-03-31,12:30,0.09188
2012-03-31,13:00,0.09219
2012-03-31,13:30,0.10165
2012-03-31,14:00,0.10165
2012-03-31,14:30,0.10165
2012-03-31,15:00,0.10165
2012-03-31,15:30,0.10134
2012-03-31,16:00,0.10165
2012-03-31,16:30,0.10134
2012-03-31,17:00,0.10134
2012-03-31,17:30,0.10134
2012-03-31,18:00,0.10165
2012-03-31,18:30,0.10104
2012-03-31,19:00,0.09188
2012-03-31,19:30,0.09158
2012-03-31,20:00,0.09127
2012-03-31,20:30,0.09127
2012-03-31,21:00,0.09158
2012-03-31,21:30,0.09188
2012-03-31,22:00,0.09249
2012-03-31,22:30,0.0931
2012-03-31,23:00,0.10287
2012-03-31,23:30,0.0931
2012-04-01,00:00,0.09341
2012-04-01,00:30,0.09341
2012-04-01,01:00,0.10287
2012-04-01,01:30,0.10195
2012-04-01,02:00,0.10256
2012-04-01,02:30,0.10287
2012-04-01,03:00,0.10287
2012-04-01,03:30,0.10287
2012-04-01,04:00,0.09249
2012-04-01,04:30,0.10256
2012-04-01,05:00,0.0931
2012-04-01,05:30,0.10287
2012-04-01,06:00,0.10287
2012-04-01,06:30,0.11172
2012-04-01,07:00,0.10256
2012-04-01,07:30,0.10226
2012-04-01,08:00,0.10226
2012-04-01,08:30,0.10195
2012-04-01,09:00,0.10256
2012-04-01,09:30,0.10226
2012-04-01,10:00,0.10195
2012-04-01,10:30,0.09219
2012-04-01,11:00,0.09188
2012-04-01,11:30,0.09158
2012-04-01,12:00,0.09096
2012-04-01,12:30,0.10104
2012-04-01,13:00,0.11172
2012-04-01,13:30,0.1105
2012-04-01,14:00,0.1105
2012-04-01,14:30,0.10104
2012-04-01,15:00,0.10104
2012-04-01,15:30,0.09096
2012-04-01,16:00,0.09066
2012-04-01,16:30,0.09035
2012-04-01,17:00,0.09096
2012-04-01,17:30,0.09066
2012-04-01,18:00,0.09066
2012-04-01,18:30,0.09096
2012-04-01,19:00,0.10073
2012-04-01,19:30,0.10073
2012-04-01,20:00,0.09188
2012-04-01,20:30,0.09188
2012-04-01,21:00,0.09158
2012-04-01,21:30,0.09158
2012-04-01,22:00,0.09219
2012-04-01,22:30,0.09219
2012-04-01,23:00,0.10287
2012-04-01,23:30,0.10226
2012-04-02,00:00,0.10287
2012-04-02,00:30,0.10287
2012-04-02,01:00,0.10165
2012-04-02,01:30,0.10195
2012-04-02,02:00,0.10256
2012-04-02,02:30,0.10287
2012-04-02,03:00,0.10287
2012-04-02,03:30,0.10256
2012-04-02,04:00,0.10226
2012-04-02,04:30,0.09463
2012-04-02,05:00,0.10287
2012-04-02,05:30,0.0931
2012-04-02,06:00,0.10256
2012-04-02,06:30,0.09341
2012-04-02,07:00,0.10287
2012-04-02,07:30,0.10287
2012-04-02,08:00,0.11294
2012-04-02,08:30,0.0931
2012-04-02,09:00,0.10165
2012-04-02,09:30,0.0928
2012-04-02,10:00,0.10134
2012-04-02,10:30,0.10165
2012-04-02,11:00,0.11203
2012-04-02,11:30,0.11172
2012-04-02,12:00,0.11203
2012-04-02,12:30,0.11172
2012-04-02,13:00,0.10043
2012-04-02,13:30,0.10043
2012-04-02,14:00,0.1102
2012-04-02,14:30,0.12943
2012-04-02,15:00,0.1102
2012-04-02,15:30,0.10104
2012-04-02,16:00,0.09066
2012-04-02,16:30,0.09096
2012-04-02,17:00,0.09035
2012-04-02,17:30,0.08791
2012-04-02,18:00,0.09066
2012-04-02,18:30,0.09066
2012-04-02,19:00,0.09066
2012-04-02,19:30,0.09035
2012-04-02,20:00,0.09249
2012-04-02,20:30,0.09219
2012-04-02,21:00,0.10134
2012-04-02,21:30,0.10134
2012-04-02,22:00,0.10134
2012-04-02,22:30,0.10165
2012-04-02,23:00,0.10287
2012-04-02,23:30,0.10256
2012-04-03,00:00,0.11203
2012-04-03,00:30,0.11264
2012-04-03,01:00,0.11294
2012-04-03,01:30,0.11294
2012-04-03,02:00,0.12302
2012-04-03,02:30,0.1221
2012-04-03,03:00,0.13217
2012-04-03,03:30,0.11294
2012-04-03,04:00,0.11264
2012-04-03,04:30,0.11294
2012-04-03,05:00,0.11264
2012-04-03,05:30,0.09737
2012-04-03,06:00,0.10165
2012-04-03,06:30,0.11203
2012-04-03,07:00,0.11233
2012-04-03,07:30,0.11172
2012-04-03,08:00,0.13217
2012-04-03,08:30,0.11294
2012-04-03,09:00,0.11233
2012-04-03,09:30,0.10104
2012-04-03,10:00,0.10165
2012-04-03,10:30,0.10134
2012-04-03,11:00,0.11172
2012-04-03,11:30,0.11203
2012-04-03,12:00,0.11172
2012-04-03,12:30,0.11172
2012-04-03,13:00,0.11172
2012-04-03,13:30,0.10867
2012-04-03,14:00,0.10043
2012-04-03,14:30,0.10043
2012-04-03,15:00,0.10073
2012-04-03,15:30,0.10104
2012-04-03,16:00,0.10104
2012-04-03,16:30,0.10073
2012-04-03,17:00,0.08974
2012-04-03,17:30,0.09066
2012-04-03,18:00,0.09096
2012-04-03,18:30,0.09035
2012-04-03,19:00,0.08578
2012-04-03,19:30,0.10195
2012-04-03,20:00,0.10165
2012-04-03,20:30,0.10165
2012-04-03,21:00,0.10165
2012-04-03,21:30,0.10165
2012-04-03,22:00,0.10165
2012-04-03,22:30,0.10256
2012-04-03,23:00,0.10226
2012-04-03,23:30,0.10256
2012-04-04,00:00,0.10256
2012-04-04,00:30,0.10287
2012-04-04,01:00,0.10256
2012-04-04,01:30,0.10195
2012-04-04,02:00,0.10226
2012-04-04,02:30,0.10256
2012-04-04,03:00,0.10256
2012-04-04,03:30,0.10256
2012-04-04,04:00,0.10256
2012-04-04,04:30,0.10256
2012-04-04,05:00,0.10287
2012-04-04,05:30,0.10256
2012-04-04,06:00,0.10256
2012-04-04,06:30,0.10256
2012-04-04,07:00,0.10226
2012-04-04,07:30,0.10226
2012-04-04,08:00,0.10226
2012-04-04,08:30,0.10256
2012-04-04,09:00,0.10195
2012-04-04,09:30,0.10226
2012-04-04,10:00,0.10134
2012-04-04,10:30,0.10104
2012-04-04,11:00,0.10104
2012-04-04,11:30,0.10073
2012-04-04,12:00,0.10043
2012-04-04,12:30,0.10134
2012-04-04,13:00,0.10165
2012-04-04,13:30,0.10165
2012-04-04,14:00,0.10165
2012-04-04,14:30,0.10134
2012-04-04,15:00,0.10195
2012-04-04,15:30,0.10165
2012-04-04,16:00,0.10134
2012-04-04,16:30,0.10134
2012-04-04,17:00,0.10134
2012-04-04,17:30,0.10134
2012-04-04,18:00,0.09188
2012-04-04,18:30,0.09158
2012-04-04,19:00,0.09188
2012-04-04,19:30,0.09219
2012-04-04,20:00,0.09371
2012-04-04,20:30,0.10256
2012-04-04,21:00,0.11264
2012-04-04,21:30,0.11416
2012-04-04,22:00,0.12179
2012-04-04,22:30,0.13187
2012-04-04,23:00,0.13217
2012-04-04,23:30,0.13217
2012-04-05,00:00,0.13217
2012-04-05,00:30,0.13217
2012-04-05,01:00,0.13217
2012-04-05,01:30,0.13217
2012-04-05,02:00,0.13217
2012-04-05,02:30,0.13217
2012-04-05,03:00,0.13248
2012-04-05,03:30,0.13217
2012-04-05,04:00,0.12302
2012-04-05,04:30,0.12271
2012-04-05,05:00,0.12271
2012-04-05,05:30,0.12302
2012-04-05,06:00,0.12271
2012-04-05,06:30,0.12302
2012-04-05,07:00,0.12271
2012-04-05,07:30,0.12271
2012-04-05,08:00,0.13217
2012-04-05,08:30,0.12241
2012-04-05,09:00,0.12271
2012-04-05,09:30,0.12271
2012-04-05,10:00,0.12241
2012-04-05,10:30,0.12241
2012-04-05,11:00,0.13187
2012-04-05,11:30,0.14164
2012-04-05,12:00,0.13217
2012-04-05,12:30,0.13217
2012-04-05,13:00,0.13217
2012-04-05,13:30,0.13095
2012-04-05,14:00,0.13065
2012-04-05,14:30,0.13004
2012-04-05,15:00,0.13004
2012-04-05,15:30,0.12118
2012-04-05,16:00,0.12057
2012-04-05,16:30,0.12057
2012-04-05,17:00,0.12057
2012-04-05,17:30,0.12973
2012-04-05,18:00,0.12973
2012-04-05,18:30,0.13095
2012-04-05,19:00,0.12149
2012-04-05,19:30,0.12179
2012-04-05,20:00,0.1221
2012-04-05,20:30,0.11233
2012-04-05,21:00,0.11264
2012-04-05,21:30,0.11294
2012-04-05,22:00,0.11264
2012-04-05,22:30,0.11294
2012-04-05,23:00,0.11264
2012-04-05,23:30,0.11294
2012-04-06,00:00,0.1221
2012-04-06,00:30,0.11233
2012-04-06,01:00,0.11233
2012-04-06,01:30,0.11264
2012-04-06,02:00,0.11264
2012-04-06,02:30,0.11294
2012-04-06,03:00,0.11294
2012-04-06,03:30,0.11172
2012-04-06,04:00,0.11264
2012-04-06,04:30,0.10256
2012-04-06,05:00,0.10317
2012-04-06,05:30,0.11294
2012-04-06,06:00,0.11111
2012-04-06,06:30,0.11203
2012-04-06,07:00,0.11233
2012-04-06,07:30,0.11233
2012-04-06,08:00,0.11233
2012-04-06,08:30,0.11264
2012-04-06,09:00,0.11264
2012-04-06,09:30,0.11233
2012-04-06,10:00,0.11233
2012-04-06,10:30,0.11233
2012-04-06,11:00,0.11203
2012-04-06,11:30,0.11203
2012-04-06,12:00,0.10134
2012-04-06,12:30,0.10104
2012-04-06,13:00,0.11172
2012-04-06,13:30,0.11172
2012-04-06,14:00,0.11081
2012-04-06,14:30,0.1102
2012-04-06,15:00,0.10073
2012-04-06,15:30,0.10104
2012-04-06,16:00,0.10104
2012-04-06,16:30,0.10073
2012-04-06,17:00,0.10073
2012-04-06,17:30,0.10012
2012-04-06,18:00,0.10134
2012-04-06,18:30,0.10195
2012-04-06,19:00,0.10165
2012-04-06,19:30,0.10195
2012-04-06,20:00,0.10165
2012-04-06,20:30,0.10165
2012-04-06,21:00,0.10165
2012-04-06,21:30,0.10195
2012-04-06,22:00,0.10165
2012-04-06,22:30,0.10287
2012-04-06,23:00,0.10287
2012-04-06,23:30,0.10195
2012-04-07,00:00,0.11233
2012-04-07,00:30,0.11264
2012-04-07,01:00,0.11233
2012-04-07,01:30,0.10256
2012-04-07,02:00,0.10256
2012-04-07,02:30,0.10256
2012-04-07,03:00,0.10256
2012-04-07,03:30,0.10256
2012-04-07,04:00,0.10256
2012-04-07,04:30,0.10256
2012-04-07,05:00,0.10256
2012-04-07,05:30,0.10256
2012-04-07,06:00,0.10226
2012-04-07,06:30,0.10287
2012-04-07,07:00,0.10195
2012-04-07,07:30,0.10165
2012-04-07,08:00,0.12179
2012-04-07,08:30,0.10134
2012-04-07,09:00,0.10165
2012-04-07,09:30,0.10134
2012-04-07,10:00,0.10134
2012-04-07,10:30,0.10104
2012-04-07,11:00,0.09158
2012-04-07,11:30,0.09127
2012-04-07,12:00,0.10409
2012-04-07,12:30,0.10287
2012-04-07,13:00,0.11081
2012-04-07,13:30,0.1105
2012-04-07,14:00,0.11081
2012-04-07,14:30,0.1102
2012-04-07,15:00,0.10043
2012-04-07,15:30,0.09921
2012-04-07,16:00,0.10104
2012-04-07,16:30,0.10134
2012-04-07,17:00,0.10134
2012-04-07,17:30,0.10134
2012-04-07,18:00,0.10165
2012-04-07,18:30,0.11203
2012-04-07,19:00,0.11203
2012-04-07,19:30,0.11233
2012-04-07,20:00,0.11203
2012-04-07,20:30,0.11264
2012-04-07,21:00,0.10165
2012-04-07,21:30,0.10195
2012-04-07,22:00,0.10226
2012-04-07,22:30,0.10287
2012-04-07,23:00,0.10195
2012-04-07,23:30,0.10256
2012-04-08,00:00,0.10256
2012-04-08,00:30,0.11294
2012-04-08,01:00,0.11264
2012-04-08,01:30,0.11294
2012-04-08,02:00,0.11294
2012-04-08,02:30,0.11294
2012-04-08,03:00,0.11264
2012-04-08,03:30,0.11294
2012-04-08,04:00,0.11264
2012-04-08,04:30,0.10256
2012-04-08,05:00,0.10256
2012-04-08,05:30,0.10226
2012-04-08,06:00,0.10226
2012-04-08,06:30,0.10195
2012-04-08,07:00,0.10165
2012-04-08,07:30,0.10165
2012-04-08,08:00,0.12179
2012-04-08,08:30,0.10165
2012-04-08,09:00,0.10134
2012-04-08,09:30,0.10104
2012-04-08,10:00,0.10104
2012-04-08,10:30,0.10104
2012-04-08,11:00,0.10134
2012-04-08,11:30,0.11111
2012-04-08,12:00,0.11111
2012-04-08,12:30,0.11172
2012-04-08,13:00,0.11172
2012-04-08,13:30,0.11203
2012-04-08,14:00,0.1105
2012-04-08,14:30,0.10012
2012-04-08,15:00,0.10073
2012-04-08,15:30,0.10073
2012-04-08,16:00,0.10073
2012-04-08,16:30,0.10043
2012-04-08,17:00,0.09982
2012-04-08,17:30,0.10104
2012-04-08,18:00,0.11172
2012-04-08,18:30,0.11203
2012-04-08,19:00,0.11081
2012-04-08,19:30,0.10165
2012-04-08,20:00,0.10165
2012-04-08,20:30,0.10165
2012-04-08,21:00,0.10165
2012-04-08,21:30,0.10165
2012-04-08,22:00,0.10165
2012-04-08,22:30,0.11233
2012-04-08,23:00,0.11233
2012-04-08,23:30,0.10226
2012-04-09,00:00,0.10287
2012-04-09,00:30,0.10287
2012-04-09,01:00,0.10287
2012-04-09,01:30,0.10226
2012-04-09,02:00,0.10073
2012-04-09,02:30,0.10256
2012-04-09,03:00,0.10287
2012-04-09,03:30,0.11111
2012-04-09,04:00,0.11203
2012-04-09,04:30,0.11203
2012-04-09,05:00,0.10226
2012-04-09,05:30,0.10256
2012-04-09,06:00,0.10226
2012-04-09,06:30,0.10195
2012-04-09,07:00,0.10165
2012-04-09,07:30,0.11264
2012-04-09,08:00,0.11233
2012-04-09,08:30,0.10134
2012-04-09,09:00,0.10134
2012-04-09,09:30,0.10104
2012-04-09,10:00,0.10104
2012-04-09,10:30,0.10104
2012-04-09,11:00,0.10134
2012-04-09,11:30,0.10134
2012-04-09,12:00,0.10134
2012-04-09,12:30,0.11172
2012-04-09,13:00,0.11172
2012-04-09,13:30,0.12118
2012-04-09,14:00,0.13065
2012-04-09,14:30,0.13065
2012-04-09,15:00,0.13065
2012-04-09,15:30,0.1398
2012-04-09,16:00,0.14011
2012-04-09,16:30,0.13034
2012-04-09,17:00,0.13065
2012-04-09,17:30,0.13065
2012-04-09,18:00,0.13065
2012-04-09,18:30,0.13217
2012-04-09,19:00,0.13187
2012-04-09,19:30,0.13217
2012-04-09,20:00,0.12241
2012-04-09,20:30,0.13187
2012-04-09,21:00,0.14194
2012-04-09,21:30,0.14164
2012-04-09,22:00,0.15049
2012-04-09,22:30,0.15049
2012-04-09,23:00,0.15079
2012-04-09,23:30,0.15049
2012-04-10,00:00,0.15049
2012-04-10,00:30,0.15049
2012-04-10,01:00,0.14194
2012-04-10,01:30,0.14103
2012-04-10,02:00,0.14164
2012-04-10,02:30,0.14164
2012-04-10,03:00,0.14164
2012-04-10,03:30,0.14042
2012-04-10,04:00,0.13217
2012-04-10,04:30,0.12271
2012-04-10,05:00,0.12302
2012-04-10,05:30,0.12302
2012-04-10,06:00,0.12302
2012-04-10,06:30,0.12302
2012-04-10,07:00,0.12271
2012-04-10,07:30,0.12271
2012-04-10,08:00,0.11691
2012-04-10,08:30,0.11233
2012-04-10,09:00,0.11233
2012-04-10,09:30,0.11233
2012-04-10,10:00,0.11111
2012-04-10,10:30,0.11203
2012-04-10,11:00,0.11203
2012-04-10,11:30,0.11203
2012-04-10,12:00,0.11203
2012-04-10,12:30,0.11172
2012-04-10,13:00,0.11172